Orbital elements:
Genesis
   Perigee 2004 Sep 8.666995 TT
Epoch 2004 Sep  8.0 TT = JDT 2453256.5                  Find_Orb
M 356.11673              (2000.0)            P               Q
n   5.82201934     Peri.  133.17362     -0.41821112     -0.84229011
a  660522.692 km   Node   334.21244      0.42205914      0.15132607
e   0.9900305      Incl.   51.41681      0.80434167     -0.51734686
P  61.83d          H   28.4           G   0.15      q 6585.037 km
From 32 observations 2004 Sep. 6-8;   RMS error 0.557 arcseconds

Orbital elements (for Aug 31 to Sep 4 data):
Genesis
   Perigee 2004 Sep 8.694615 TT
Epoch 2004 Sep  2.0 TT = JDT 2453250.5                  Find_Orb
M 323.35921              (2000.0)            P               Q
n   5.47317297     Peri.  134.79687     -0.43201749     -0.82527315
a  688299.397 km   Node   332.87563      0.41896339      0.17347838
e   0.9917833      Incl.   52.91520      0.79864294     -0.53742856
P  65.77d          H   28.2           G   0.15      q 5655.497 km
From 22 observations 2004 Aug. 31-Sep. 4;   RMS error 0.737 arcseconds

Orbital elements (for 16-28 August data):
Genesis
   Perigee 2004 Sep 8.699902 TT
Epoch 2004 Sep  2.0 TT = JDT 2453250.5                  Find_Orb
M 323.18093              (2000.0)            P               Q
n   5.49546327     Peri.  134.61431     -0.43078119     -0.82721387
a  686436.916 km   Node   333.05016      0.41903756      0.17069486
e   0.9914832      Incl.   52.74990      0.79927159     -0.53533210
P  65.51d          H   28.3           G   0.15      q 5846.210 km
From 10 observations 2004 Aug. 16-28;   RMS error 0.670 arcseconds

Orbital elements (for 29 July to 7 August data):
Genesis
   Perigee 2004 Sep 8.826900 TT
Epoch 2004 Sep  2.0 TT = JDT 2453250.5                  Find_Orb
M 322.46031              (2000.0)            P               Q
n   5.49878968     Peri.  134.42622     -0.43088655     -0.82943952
a  686160.055 km   Node   333.37548      0.41914194      0.16490399
e   0.9914620      Incl.   52.48877      0.79916006     -0.53370099
P  65.47d          H   28.4           G   0.15      q 5858.387 km
From 29 observations 2004 Jul. 29-Aug. 7;   RMS error 0.819 arcseconds

Residuals in arcseconds:
040510 703( 24d- 9.9d+)   040807 E12( 360-  243-)   040906 413  .16-  .63+
040510 703( 24d- 9.9d+)   040807 E12( 361-  243-)   040906 413  .19-  .69+
040510 703( 24d- 9.9d+)   040807 E12( 359-  243-)   040907 649  .47+  .24-
040510 703( 24d- 9.9d+)   040807 E12( 358-  241-)   040907 649  .26+  .24-
040510 703( 24d- 9.8d+)   040816 649( 295-  200-)   040907 649  .30+  .14-
040510 703( 24d- 9.8d+)   040816 649( 295-  201-)   040907 649  .38-  .10-
040510 703( 24d- 9.8d+)   040816 649( 295-  200-)   040907 649  .47-  .00
040510 703( 24d- 9.8d+)   040816 568( 294-  197-)   040907 649  .04-  .29-
040514 G92( 14d- 6.5d+)   040816 568( 294-  197-)   040907 J95( .39-  3.9-)
040514 G92( 14d- 6.5d+)   040826 413( 131- 77.4-)   040907 J95( .42-  4.8-)
040514 G92( 14d- 6.5d+)   040826 413( 130- 76.7-)   040907 J95( .72-  4.5-)
040729 E12( 350-  217-)   040828 413(87.7- 53.2-)   040908 859  .30+  .36-
040729 E12( 351-  216-)   040828 413(87.5- 52.6-)   040908 859  .51-  .26+
040729 E12( 352-  215-)   040828 413(87.2- 52.9-)   040908 859  .78+  1.4-
040729 E12( 351-  216-)   040831 568(48.9- 29.7-)   040908 859  .58-  .25-
040729 E12( 360-  215-)   040831 568(52.4- 29.9-)   040908 859  .23-  .54-
040729 E12( 359-  215-)   040903 413(31.0- 16.2-)   040908 859  .11+  .27-
040729 E12( 360-  215-)   040903 413(31.0- 15.9-)   040908 859  .52-  .06+
040729 E12( 360-  215-)   040903 413(31.0- 16.4-)   040908 859  .23+  .24+
040729 E12( 361-  213-)   040903 413(30.8- 16.2-)   040908 859  .36-  .49-
040729 E12( 361-  213-)   040903 413(31.0- 16.2-)   040908 859  .02-  .22+
040730 474( 354-  220-)   040903 413(30.7- 14.6-)   040908 649  .58+  .15-
040730 474( 355-  220-)   040904 705(24.7- 14.6-)   040908 649  .59+  .13+
040730 474( 355-  219-)   040904 705(23.9- 14.4-)   040908 649  .64+  .01+
040730 474( 354-  220-)   040904 705(25.1- 14.5-)   040908 649  .54+  .05+
040730 474( 355-  220-)   040904 705(24.4- 14.8-)   040908 649  .12+  .39+
040730 474( 358-  220-)   040904 705(25.6- 14.6-)   040908 649  .24+  .46+
040730 474( 357-  219-)   040904 705(23.8- 14.9-)   040908 649  .09+  .24+
040730 474( 357-  220-)   040904 705(24.0- 14.7-)   040908 649  .15+  .20+
040730 474( 357-  220-)   040904 705(25.3- 14.7-)   040908 649  .08+  .50+
040730 474( 358-  220-)   040904 705(24.2- 14.3-)   040908 649  .33-  .13-
040807 E12( 360-  243-)   040904 705(25.3- 14.5-)   040908 649  .40-  .27+
040807 E12( 358-  244-)   040904 705(24.3- 14.5-)   040908 649  .36-  .15+
040807 E12( 359-  244-)   040904 413(22.4- 12.3-)   040908 649  .47-  .11-
040807 E12( 359-  243-)   040904 413(22.4- 12.1-)   040908 649  .47-  .30+
040807 E12( 360-  243-)   040904 413(22.6- 12.3-)

